Showing default

GSTAR 3, 19483

Orbit data source: Space-Track

GSTAR 3, 19483 is a payload satellite owned by GTE (US) in GEO that was launched on Thu, 08 Sep 1988 UTC via an ARIANE 3 launch vehicle from the French Guiana (FRGUI). Payload-class satellites include a variety of spacecraft equipped with specific instruments for various scientific and technological missions. These include communications satellites like Starlink; space stations such as the ISS; scientific satellites like the Hubble; Earth observation satellites from companies like Planet Labs, Umbra, and HawkEye 360; GPS; miniature CubeSats for education and research; and military/defense satellites.

Loading next visibility...
Identifier
19483, 1988-081A
Orbit
GEO
Last TLE update
14 hours ago
Origin
Manufacturer
GE/East Windsor
Mission
Commercial Communications
Bus & Motor
AS3000, TE-M-700-17
Mass
1,243 kg wet, ~370 kg dry
Launch date (UTC)
1988-09-08 (37 years ago)
Launch vehicle
ARIANE 3
Launch site
French Guiana (FRGUI)
Object type
Payload
Rocket body
Debris
Shape & HBR
Box + 2 Pan, 14.3 m
Radar Cross Section
6.702 m², Large (>1 m²)

Expand to show TLE details & history

TLE from 14 hours ago
0 GSTAR 3
1 19483U 88081A   25183.90267541 -.00000102  00000-0  00000-0 0  9997
2 19483  11.6819 321.0680 0007897 194.0502 345.8844  1.00272397131096
Epoch: 2025-07-02T21:39Z
TLE epoch observation values (Epoch: 2025-07-02T21:39:51.155Z)
Latitude
0.02237°
Longitude
-105.15256°
Altitude
35,753.692 km
Speed
3.077 km/s
True Right ascension
09h 23m 57s
True Declination
0° 01' 20"
Sunlit
Object was in daylight at epoch
Visualization orbit readout
Latitude
7.00479°
Longitude
111.32652°
Altitude
35,815.912 km
Speed
3.073 km/s
Apparent Right ascension
23h 49m 31s
Apparent Declination
1° 39' 24"
Sunlit
Object is in daylight
Visualization observer readout
Local Sidereal Time
23:52:24
Azimuth
181.16° SSW
Elevation
51.735°
Doppler factor
1
Orbital elements
Apogee altitude
35,820.728 km
Perigee altitude
35,754.131 km
Semi-major axis
42,165.567 km
Eccentricity
0.00079
Inclination
11.6819°
RAAN
321.068°
Arg. of periapsis
194.0502°
True anomaly
Unknown
Mean anomaly
345.8844°
Eccentric anomaly
Unknown
Mean motion
0.25067 °/min
Orbital period
1,436.14 mins
BSTAR
0
Loading historical data...
19483 neighbors
Loading maneuver chart data...
Loading SW <> Apogee altitude chart data...
Loading historical data...
Loading historical data...
Loading historical data...
Loading historical data...
Loading historical data...
Loading historical data...
Loading historical data...

GSTAR 3 Visibility forecast

Observer location: undefined°, undefined°

Span
Click to sort rows by Start time (UTC) header in descending order
Start Az.
Max El. time (UTC)
Max El. Az.
Max El.
End time (UTC)
End Az.
1440 mins2025-07-03 12:05:47.943Z181.16° SSW2025-07-03 15:39:47.943Z180.201° SSW40.01°2025-07-04 12:05:47.943Z181.181° SSW
|